{"data":{"norad_id":67663,"intl_designator":"2026-022R","name":"STARLINK-36675","alt_names":[],"object_type":"PAYLOAD","status":"ACTIVE","operator":null,"country":"US","launch_date":"2026-02-02","launch_site_code":"AFWTR","launch_vehicle":null,"mission":null,"orbit_class":"UNKNOWN","rcs_meters":null,"size_class":null,"mass_kg":null,"dimensions":null,"purposes":["comms"],"wikipedia_slug":null,"has_3d_model":false,"image_url":null,"decayed_at":null,"tle_current":{"epoch":"2026-09-19T08:17:48.823008Z","epoch_age_seconds":168942,"freshness":"FRESH","line1":"1 67663U 26022R   26262.34570397  .00016579  00000+0  51477-3 0  9990","line2":"2 67663  97.2841 293.9778 0001516  98.5099 261.6316 15.33442346 35254","mean_motion":15.33442346,"eccentricity":0.0001516,"inclination_deg":97.2841,"raan_deg":293.9778,"arg_perigee_deg":98.5099,"mean_anomaly_deg":261.6316,"bstar":0.00051477,"rev_number":3525,"period_min":93.906367184671,"perigee_km":464.51356781472,"apogee_km":466.58857403782,"semimajor_km":6843.6880709263,"source":"CELESTRAK","updated_at":"2026-09-20T09:00:43.622743Z"}}}